VK2BLR Weather Reports


Display with metric or nautical units.
time (UTC)temp
F
wind
direction
speed
MPH
gust
MPH
rain 1hr
in
rain 24hr
in
rain mn
in
humidity
%
barometer
mb
20260509100832 53 270 0.0 0.0 0.00 0.00 0.00 72 1023.8
20260509095334 54 270 0.0 0.0 0.00 0.00 0.00 71 1023.7
20260509093834 55 270 0.0 0.0 0.00 0.00 0.00 68 1023.5
20260509092332 55 270 0.0 0.0 0.00 0.00 0.00 67 1023.7
20260509090833 56 270 0.0 0.0 0.00 0.00 0.00 65 1023.5
20260509085333 56 270 0.0 0.0 0.00 0.00 0.00 64 1023.3
20260509083834 57 270 0.0 0.0 0.00 0.00 0.00 63 1023.2
20260509082332 58 270 0.0 0.0 0.00 0.00 0.00 62 1023.0
20260509080833 59 270 0.0 0.0 0.00 0.00 0.00 61 1022.9
20260509075334 60 270 0.0 0.0 0.00 0.00 0.00 60 1022.7
20260509073833 61 270 0.0 0.0 0.00 0.00 0.00 58 1022.6
20260509072333 62 270 0.0 1.0 0.00 0.00 0.00 56 1022.5
20260509070834 63 270 1.0 3.0 0.00 0.00 0.00 55 1022.3
20260509065333 64 298 2.0 3.0 0.00 0.00 0.00 51 1022.2
20260509063832 64 286 2.0 3.0 0.00 0.00 0.00 50 1022.0
20260509062333 65 270 1.0 3.0 0.00 0.00 0.00 49 1022.0
20260509060833 66 291 3.0 6.0 0.00 0.00 0.00 48 1021.9
20260509055333 66 304 2.0 5.0 0.00 0.00 0.00 47 1021.8
20260509053832 67 302 3.0 6.0 0.00 0.00 0.00 47 1021.9
20260509052334 66 270 1.0 3.0 0.00 0.00 0.00 47 1021.9
20260509050833 67 297 1.0 3.0 0.00 0.00 0.00 46 1021.9
20260509045332 67 315 2.0 6.0 0.00 0.00 0.00 46 1021.8
20260509043832 68 292 1.0 1.0 0.00 0.00 0.00 45 1021.6
20260509042334 68 315 1.0 3.0 0.00 0.00 0.00 44 1021.7
20260509040833 68 275 2.0 3.0 0.00 0.00 0.00 44 1021.8
20260509035332 68 270 2.0 5.0 0.00 0.00 0.00 45 1021.8
20260509033834 68 270 1.0 3.0 0.00 0.00 0.00 46 1021.9
20260509032333 68 270 1.0 3.0 0.00 0.00 0.00 46 1021.9
20260509030834 68 270 1.0 3.0 0.00 0.00 0.00 46 1021.9
20260509025334 68 270 1.0 2.0 0.00 0.00 0.00 45 1022.1
20260509023833 68 270 1.0 3.0 0.00 0.00 0.00 46 1022.2
20260509022333 69 270 3.0 5.0 0.00 0.00 0.00 46 1022.4
20260509020833 68 270 0.0 1.0 0.00 0.00 0.00 47 1022.5
20260509015333 68 270 3.0 5.0 0.00 0.00 0.00 47 1022.9
20260509013833 67 315 0.0 0.0 0.00 0.00 0.00 48 1023.1
20260509012332 66 292 0.0 1.0 0.00 0.00 0.00 48 1023.0
20260509010832 67 292 3.0 3.0 0.00 0.00 0.00 49 1022.9
20260509005334 66 270 1.0 3.0 0.00 0.00 0.00 50 1023.0
20260509003834 66 270 0.0 2.0 0.00 0.00 0.00 50 1023.2
20260509002333 67 292 1.0 3.0 0.00 0.00 0.00 50 1023.1
20260509000834 66 270 1.0 2.0 0.00 0.00 0.00 50 1023.0
20260508235334 66 270 1.0 1.0 0.00 0.00 0.00 51 1023.0
20260508233832 66 270 0.0 1.0 0.00 0.00 0.00 51 1022.7
20260508232333 65 270 2.0 3.0 0.00 0.00 0.00 52 1022.7
20260508230834 64 270 1.0 1.0 0.00 0.00 0.00 53 1022.9
20260508225334 64 270 1.0 2.0 0.00 0.00 0.00 54 1022.9
20260508223834 63 270 1.0 1.0 0.00 0.00 0.00 61 1022.5
20260508222334 60 270 0.0 1.0 0.00 0.00 0.00 66 1022.4
20260508220834 57 270 0.0 1.0 0.00 0.00 0.00 73 1022.2
20260508215333 53 270 0.0 1.0 0.00 0.00 0.00 84 1022.1
20260508213833 48 270 0.0 1.0 0.00 0.00 0.00 86 1022.0
20260508212333 43 270 0.0 0.0 0.00 0.00 0.00 89 1021.9
20260508210834 43 270 0.0 0.0 0.00 0.00 0.00 88 1021.7
20260508205333 43 270 0.0 0.0 0.00 0.00 0.00 88 1021.7
20260508203833 43 270 0.0 0.0 0.00 0.00 0.00 89 1021.5
20260508202333 43 270 0.0 0.0 0.00 0.00 0.00 89 1021.3
20260508200834 43 270 0.0 0.0 0.00 0.00 0.00 89 1021.3
20260508195333 44 270 0.0 0.0 0.00 0.00 0.00 89 1021.2
20260508193832 44 270 0.0 0.0 0.00 0.00 0.00 88 1021.1
20260508192334 44 270 0.0 0.0 0.00 0.00 0.00 88 1020.9
20260508190834 44 270 0.0 0.0 0.00 0.00 0.00 88 1021.0
20260508185333 44 270 0.0 0.0 0.00 0.00 0.00 88 1021.0
20260508183834 45 270 0.0 0.0 0.00 0.00 0.00 88 1020.9
20260508182333 45 270 0.0 0.0 0.00 0.00 0.00 87 1020.9
20260508180832 45 270 0.0 0.0 0.00 0.00 0.00 87 1021.0
20260508175334 45 270 0.0 0.0 0.00 0.00 0.00 87 1021.0
20260508173834 46 270 0.0 0.0 0.00 0.00 0.00 82 1021.2
20260508172332 46 270 0.0 0.0 0.00 0.00 0.00 82 1021.2
20260508170833 46 270 0.0 0.0 0.00 0.00 0.00 82 1021.2
20260508165333 46 270 0.0 0.0 0.00 0.00 0.00 81 1021.4
20260508163834 47 270 0.0 0.0 0.00 0.00 0.00 81 1021.3
20260508162332 47 270 0.0 0.0 0.00 0.00 0.00 82 1021.3
20260508160833 47 270 0.0 0.0 0.00 0.00 0.00 82 1021.3
20260508155333 47 270 0.0 0.0 0.00 0.00 0.00 81 1021.3
20260508153833 48 270 0.0 0.0 0.00 0.00 0.00 81 1021.2
20260508152332 48 270 0.0 0.0 0.00 0.00 0.00 81 1021.2
20260508150833 49 270 0.0 0.0 0.00 0.00 0.00 80 1021.2
20260508145334 49 270 0.0 1.0 0.00 0.00 0.00 80 1021.4
20260508143832 49 270 0.0 0.0 0.00 0.00 0.00 79 1021.4
20260508142334 50 270 0.0 1.0 0.00 0.00 0.00 79 1021.4
20260508140834 51 270 0.0 0.0 0.00 0.00 0.00 79 1021.3
20260508135333 51 270 0.0 0.0 0.00 0.00 0.00 78 1021.3
20260508133833 51 270 0.0 3.0 0.00 0.00 0.00 78 1021.6
20260508132333 52 270 0.0 1.0 0.00 0.00 0.00 76 1021.6
20260508130834 52 270 0.0 0.0 0.00 0.00 0.00 76 1021.7
20260508125332 53 270 0.0 0.0 0.00 0.00 0.00 76 1021.9
20260508123833 53 270 0.0 1.0 0.00 0.00 0.00 76 1021.9
20260508122334 53 270 1.0 3.0 0.00 0.00 0.00 76 1022.0
20260508120833 53 270 0.0 1.0 0.00 0.00 0.00 77 1022.1
20260508115332 53 270 0.0 0.0 0.00 0.00 0.00 77 1022.1
20260508113832 53 270 0.0 1.0 0.00 0.00 0.00 76 1022.0
20260508112334 52 270 0.0 1.0 0.00 0.00 0.00 75 1021.9
20260508110833 53 270 0.0 0.0 0.00 0.00 0.00 75 1021.8
20260508105333 53 270 0.0 0.0 0.00 0.00 0.00 74 1021.7
20260508103833 53 270 0.0 1.0 0.00 0.00 0.00 74 1021.7
20260508102333 54 270 0.0 0.0 0.00 0.00 0.00 73 1021.6